DW3068 Weather Reports


Display with metric or nautical units.
time (UTC)temp
F
wind
direction
speed
MPH
gust
MPH
rain 1hr
in
rain 24hr
in
rain mn
in
humidity
%
barometer
mb
20181121034732 51 292 2.0 2.0 0.00 0.00 0.00 56 1012.0
20181121033732 51 292 2.0 3.0 0.00 0.00 0.00 56 1012.0
20181121032732 51 292 1.0 3.0 0.00 0.00 0.00 55 1012.0
20181121031737 51 315 1.0 2.0 0.00 0.00 0.00 56 1012.0
20181121030731 51 315 1.0 3.0 0.00 0.00 0.00 56 1012.0
20181121025732 51 292 1.0 3.0 0.00 0.00 0.00 57 1012.0
20181121024734 51 247 2.0 3.0 0.00 0.00 0.00 56 1012.0
20181121023733 51 227 2.0 2.0 0.00 0.00 0.00 55 1013.0
20181121022734 51 215 2.0 3.0 0.00 0.00 0.00 55 1013.0
20181121021733 51 230 3.0 3.0 0.00 0.00 0.00 55 1013.0
20181121020733 51 262 2.0 2.0 0.00 0.00 0.00 54 1013.0
20181121015731 51 225 1.0 2.0 0.00 0.00 0.00 55 1013.0
20181121014731 51 0 1.0 2.0 0.00 0.00 0.00 55 1013.0
20181121013733 51 0 1.0 2.0 0.00 0.00 0.00 55 1013.0
20181121012732 51 197 2.0 3.0 0.00 0.00 0.00 54 1013.0
20181121011733 51 270 1.0 2.0 0.00 0.00 0.00 55 1013.0
20181121010733 51 270 2.0 2.0 0.00 0.00 0.00 54 1014.0
20181121005732 52 203 2.0 3.0 0.00 0.00 0.00 56 1014.0
20181121004734 52 190 3.0 5.0 0.00 0.00 0.00 57 1013.0
20181121003732 52 211 2.0 5.0 0.00 0.00 0.00 57 1014.0
20181121002731 52 84 3.0 6.0 0.00 0.00 0.00 58 1014.0
20181121001732 51 65 5.0 6.0 0.00 0.00 0.00 53 1015.0
20181121000732 51 22 2.0 3.0 0.00 0.00 0.00 50 1015.0
20181120235732 51 22 1.0 2.0 0.00 0.00 0.00 50 1015.0
20181120234732 51 22 2.0 7.0 0.00 0.00 0.00 51 1015.0
20181120233731 51 22 6.0 8.0 0.00 0.00 0.00 50 1015.0
20181120232733 51 328 5.0 7.0 0.00 0.00 0.00 48 1015.0
20181120231732 50 315 4.0 8.0 0.00 0.00 0.00 46 1015.0
20181120230948 50 286 5.0 8.0 0.00 0.00 0.00 45 1015.0
20181120225733 50 39 1.0 8.0 0.00 0.00 0.00 40 1015.0
20181120224733 50 283 5.0 8.0 0.00 0.00 0.00 39 1015.0
20181120223735 50 45 5.0 7.0 0.00 0.00 0.00 38 1015.0
20181120222734 51 346 5.0 9.0 0.00 0.00 0.00 35 1015.0
20181120221733 52 320 7.0 8.0 0.00 0.00 0.00 26 1015.0
20181120220736 53 239 6.0 14.0 0.00 0.00 0.00 26 1014.0
20181120215733 53 130 6.0 16.0 0.00 0.00 0.00 23 1014.0
20181120214733 53 136 7.0 15.0 0.00 0.00 0.00 26 1013.0
20181120213733 53 126 6.0 15.0 0.00 0.00 0.00 27 1014.0
20181120212733 53 102 9.0 16.0 0.00 0.00 0.00 27 1014.0
20181120211733 52 92 9.0 17.0 0.00 0.00 0.00 29 1013.0
20181120210734 52 102 9.0 15.0 0.00 0.00 0.00 33 1013.0
20181120205736 52 112 13.0 21.0 0.00 0.00 0.00 32 1013.0
20181120204735 52 98 13.0 21.0 0.00 0.00 0.00 34 1013.0
20181120203734 52 93 14.0 18.0 0.00 0.00 0.00 33 1013.0
20181120202732 52 85 15.0 24.0 0.00 0.00 0.00 29 1013.0
20181120201737 52 78 14.0 21.0 0.00 0.00 0.00 30 1015.0
20181120200732 52 90 14.0 21.0 0.00 0.00 0.00 30 1015.0
20181120195735 52 100 13.0 21.0 0.00 0.00 0.00 28 1015.0
20181120194735 52 93 16.0 22.0 0.00 0.00 0.00 30 1015.0
20181120193734 52 87 14.0 21.0 0.00 0.00 0.00 36 1016.0
20181120192735 52 92 14.0 24.0 0.00 0.00 0.00 36 1016.0
20181120191732 52 115 13.0 20.0 0.00 0.00 0.00 39 1015.0
20181120190735 51 78 12.0 15.0 0.00 0.00 0.00 40 1016.0
20181120185736 51 70 8.0 13.0 0.00 0.00 0.00 39 1016.0
20181120184739 52 135 5.0 14.0 0.00 0.00 0.00 37 1016.0
20181120183734 52 115 12.0 16.0 0.00 0.00 0.00 36 1015.0
20181120182737 52 97 7.0 14.0 0.00 0.00 0.00 37 1015.0
20181120181734 52 84 10.0 15.0 0.00 0.00 0.00 37 1016.0
20181120180734 51 109 6.0 13.0 0.00 0.00 0.00 41 1016.0
20181120175734 51 134 6.0 9.0 0.00 0.00 0.00 41 1016.0
20181120174734 51 121 7.0 14.0 0.00 0.00 0.00 39 1016.0
20181120173735 51 120 7.0 16.0 0.00 0.00 0.00 38 1016.0
20181120172737 51 96 10.0 17.0 0.00 0.00 0.00 34 1016.0
20181120171734 52 111 12.0 20.0 0.00 0.00 0.00 29 1015.0
20181120170734 52 104 16.0 23.0 0.00 0.00 0.00 30 1016.0
20181120165738 51 82 9.0 15.0 0.00 0.00 0.00 36 1016.0
20181120164734 51 102 8.0 14.0 0.00 0.00 0.00 36 1016.0
20181120163736 51 108 12.0 20.0 0.00 0.00 0.00 36 1016.0
20181120162736 51 90 12.0 17.0 0.00 0.00 0.00 36 1016.0
20181120161734 51 98 10.0 17.0 0.00 0.00 0.00 36 1015.0
20181120160735 51 115 9.0 15.0 0.00 0.00 0.00 34 1016.0
20181120155735 51 113 13.0 17.0 0.00 0.00 0.00 31 1016.0
20181120154736 51 122 9.0 17.0 0.00 0.00 0.00 30 1016.0
20181120153735 51 84 12.0 21.0 0.00 0.00 0.00 30 1015.0
20181120152736 51 106 16.0 22.0 0.00 0.00 0.00 31 1015.0
20181120151736 51 106 14.0 24.0 0.00 0.00 0.00 32 1015.0
20181120150736 51 98 14.0 22.0 0.00 0.00 0.00 32 1015.0
20181120145737 51 117 14.0 28.0 0.00 0.00 0.00 30 1015.0
20181120144736 51 100 18.0 28.0 0.00 0.00 0.00 28 1015.0
20181120143737 51 102 13.0 21.0 0.00 0.00 0.00 29 1015.0
20181120142734 51 91 16.0 22.0 0.00 0.00 0.00 32 1015.0
20181120141735 51 106 10.0 15.0 0.00 0.00 0.00 34 1016.0
20181120140735 51 112 13.0 18.0 0.00 0.00 0.00 33 1016.0
20181120135735 51 78 12.0 18.0 0.00 0.00 0.00 30 1016.0
20181120134737 51 121 12.0 20.0 0.00 0.00 0.00 28 1016.0
20181120133735 51 109 10.0 21.0 0.00 0.00 0.00 28 1015.0
20181120132737 51 100 13.0 21.0 0.00 0.00 0.00 27 1015.0
20181120131734 51 85 12.0 21.0 0.00 0.00 0.00 27 1016.0
20181120130735 51 93 14.0 22.0 0.00 0.00 0.00 27 1016.0
20181120125734 51 80 15.0 23.0 0.00 0.00 0.00 26 1016.0
20181120124736 51 89 12.0 20.0 0.00 0.00 0.00 26 1015.0
20181120123734 51 96 14.0 21.0 0.00 0.00 0.00 26 1016.0
20181120122735 51 94 14.0 18.0 0.00 0.00 0.00 26 1016.0
20181120121734 51 122 12.0 18.0 0.00 0.00 0.00 26 1016.0
20181120120736 51 89 10.0 18.0 0.00 0.00 0.00 27 1016.0
20181120115734 51 112 11.0 20.0 0.00 0.00 0.00 24 1016.0
20181120114735 52 104 9.0 16.0 0.00 0.00 0.00 21 1016.0
20181120113736 52 114 12.0 20.0 0.00 0.00 0.00 21 1016.0
20181120112737 52 113 12.0 16.0 0.00 0.00 0.00 21 1016.0
20181120111735 52 116 6.0 16.0 0.00 0.00 0.00 21 1016.0
20181120110735 52 112 10.0 16.0 0.00 0.00 0.00 21 1016.0
20181120105735 52 111 16.0 23.0 0.00 0.00 0.00 21 1016.0
20181120104734 53 105 12.0 18.0 0.00 0.00 0.00 21 1016.0
20181120103737 53 104 9.0 17.0 0.00 0.00 0.00 21 1016.0
20181120102735 52 124 12.0 16.0 0.00 0.00 0.00 21 1016.0
20181120101735 53 120 12.0 18.0 0.00 0.00 0.00 21 1016.0
20181120100734 53 142 10.0 20.0 0.00 0.00 0.00 21 1018.0
20181120095735 53 103 13.0 18.0 0.00 0.00 0.00 21 1018.0
20181120094741 53 109 7.0 14.0 0.00 0.00 0.00 21 1017.0
20181120093735 52 99 6.0 16.0 0.00 0.00 0.00 21 1017.0
20181120092738 51 116 9.0 15.0 0.00 0.00 0.00 24 1017.0
20181120091737 50 120 10.0 17.0 0.00 0.00 0.00 26 1017.0
20181120090735 50 112 10.0 21.0 0.00 0.00 0.00 26 1016.0
20181120085737 49 112 13.0 20.0 0.00 0.00 0.00 26 1016.0
20181120084735 49 93 10.0 22.0 0.00 0.00 0.00 27 1016.0
20181120083736 49 96 13.0 21.0 0.00 0.00 0.00 27 1017.0
20181120082736 49 123 9.0 16.0 0.00 0.00 0.00 27 1017.0
20181120081736 49 111 10.0 22.0 0.00 0.00 0.00 27 1017.0
20181120080736 49 101 14.0 18.0 0.00 0.00 0.00 26 1017.0
20181120075739 49 123 12.0 24.0 0.00 0.00 0.00 27 1017.0
20181120074735 48 112 13.0 25.0 0.00 0.00 0.00 27 1017.0
20181120073735 48 126 10.0 20.0 0.00 0.00 0.00 28 1017.0
20181120072738 47 88 18.0 28.0 0.00 0.00 0.00 29 1017.0
20181120071739 47 92 14.0 20.0 0.00 0.00 0.00 29 1017.0
20181120070736 47 114 14.0 21.0 0.00 0.00 0.00 30 1017.0
20181120065738 47 110 14.0 18.0 0.00 0.00 0.00 30 1017.0
20181120064736 44 91 5.0 9.0 0.00 0.00 0.00 30 1016.0
20181120063736 45 211 2.0 9.0 0.00 0.00 0.00 29 1017.0
20181120060738 46 114 12.0 16.0 0.00 0.00 0.00 30 1017.0
20181120055736 46 93 12.0 17.0 0.00 0.00 0.00 31 1017.0
20181120054737 45 115 12.0 17.0 0.00 0.00 0.00 31 1017.0
20181120053736 45 107 15.0 26.0 0.00 0.00 0.00 30 1016.0
20181120052737 45 100 18.0 26.0 0.00 0.00 0.00 30 1016.0
20181120050737 45 108 16.0 22.0 0.00 0.00 0.00 37 1017.0
20181120045738 44 97 14.0 21.0 0.00 0.00 0.00 50 1017.0
20181120044737 42 133 8.0 14.0 0.00 0.00 0.00 50 1017.0
20181120042738 41 125 4.0 8.0 0.00 0.00 0.00 49 1017.0
20181120041736 40 217 3.0 5.0 0.00 0.00 0.00 44 1017.0
20181120040737 39 202 5.0 6.0 0.00 0.00 0.00 43 1017.0
20181120035737 39 202 5.0 6.0 0.00 0.00 0.00 40 1017.0